Flag for United Kingdom

Past Weather in Stevenage, England, United Kingdom — Yesterday and Last 2 Weeks

Currently: 39 °F. Drizzle. Mostly cloudy. (Weather station: Luton Airport, United Kingdom). See more current weather

Past Weather in Stevenage — Graph

°F

Stevenage Temperature Yesterday

Maximum temperature yesterday: 36 °F (at 1:20 pm)
Minimum temperature yesterday: 32 °F (at 12:20 am)
Average temperature yesterday: 33 °F

High & Low Weather Summary for the Past Weeks

 TemperatureHumidityPressure
High48 °F (Jan 13, 5:20 pm)100% (Jan 1, 11:20 am)30.45 "Hg (Jan 1, 11:20 am)
Low27 °F (Jan 7, 8:20 pm)81% (Jan 2, 11:20 am)29.74 "Hg (Jan 12, 3:20 am)
Average35 °F96%30.09 "Hg
* Reported Jan 1 11:20 am — Jan 16 11:20 am, Stevenage. Weather by CustomWeather, © 2021

Note: Actual official high and low records may vary slightly from our data, if they occured in-between our weather recording intervals... More about our weather records

Stevenage Weather History for the Previous 24 Hours

Scroll right to see more
 ConditionsComfort  
Time TempWeatherWind HumidityBarometerVisibility
11:20 am
Sat, Jan 16
39 °FDrizzle. Low clouds.9 mph100%29.98 "Hg2 mi
10:50 am37 °FDrizzle. Low clouds.9 mph100%30.01 "Hg1 mi
10:20 am37 °FDrizzle. Low clouds.12 mph93%30.01 "Hg1 mi
9:50 am36 °FFog.12 mph100%30.01 "Hg2 mi
9:20 am36 °FDrizzle. Low clouds.12 mph93%30.01 "Hg3 mi
8:50 am34 °FLight rain. Low clouds.14 mph100%30.04 "Hg3 mi
8:20 am34 °FRain. Low clouds.14 mph100%30.04 "Hg3 mi
7:50 am34 °FLight rain. Passing clouds.16 mph93%30.07 "Hg2 mi
7:20 am32 °FLight rain. Passing clouds.16 mph100%30.09 "Hg2 mi
6:50 am32 °FLight snow. Low clouds.15 mph100%30.12 "Hg2 mi
6:20 am32 °FSleet. Low clouds.15 mph100%30.12 "Hg4 mi
5:50 am32 °FLight snow. Mostly cloudy.14 mph100%30.15 "Hg2 mi
5:20 am34 °FLight snow. Partly cloudy.14 mph87%30.18 "Hg3 mi
4:50 am36 °FChilly.13 mph81%30.21 "HgN/A
4:20 am36 °FChilly.13 mph81%30.21 "HgN/A
3:50 am36 °FSnow flurries. Passing clouds.13 mph81%30.21 "HgN/A
3:20 am36 °FPassing clouds.13 mph81%30.24 "HgN/A
2:50 am36 °FPassing clouds.10 mph87%30.27 "HgN/A
2:20 am34 °FOvercast.12 mph93%30.27 "HgN/A
1:50 am34 °FOvercast.10 mph93%30.27 "HgN/A
1:20 am34 °FOvercast.8 mph93%30.30 "HgN/A
12:50 am34 °FOvercast.8 mph93%30.33 "HgN/A
12:20 am34 °FOvercast.7 mph93%30.33 "HgN/A
11:50 pm
Fri, Jan 15
32 °FPassing clouds.7 mph100%30.33 "Hg6 mi
11:20 pm32 °FMostly cloudy.7 mph100%30.36 "Hg4 mi
10:50 pm32 °FPassing clouds.8 mph100%30.36 "Hg4 mi
10:20 pm32 °FIce fog.7 mph100%30.39 "Hg3 mi
9:50 pm32 °FFog.6 mph100%30.39 "Hg1 mi
9:20 pm32 °FIce fog.5 mph100%30.39 "Hg0 mi
8:50 pm32 °FIce fog.5 mph100%30.39 "Hg0 mi
8:20 pm32 °FIce fog.5 mph100%30.39 "Hg0 mi
7:50 pm32 °FIce fog.5 mph100%30.39 "Hg1 mi
7:20 pm32 °FIce fog.6 mph100%30.39 "Hg1 mi
6:50 pm32 °FIce fog.3 mph100%30.42 "Hg2 mi
6:20 pm32 °FIce fog.3 mph100%30.42 "Hg2 mi
5:50 pm32 °FIce fog.3 mph100%30.42 "Hg2 mi
5:20 pm32 °FIce fog.3 mph100%30.42 "Hg2 mi
4:50 pm32 °FIce fog.2 mph100%30.42 "Hg2 mi
4:20 pm34 °FFog.2 mph93%30.42 "Hg3 mi
3:50 pm36 °FPassing clouds.2 mph93%30.42 "HgN/A
3:20 pm36 °FLow clouds.1 mph93%30.42 "Hg6 mi
2:50 pm36 °FMore clouds than sun.2 mph93%30.42 "Hg6 mi
2:20 pm36 °FMostly cloudy.1 mph93%30.42 "Hg6 mi
1:50 pm36 °FOvercast.3 mph100%30.42 "HgN/A
1:20 pm36 °FMore clouds than sun.3 mph93%30.42 "HgN/A
12:50 pm34 °FMostly cloudy.3 mph100%30.42 "Hg5 mi
12:20 pm34 °FFog.5 mph100%30.42 "Hg3 mi
Weather by CustomWeather, © 2021

See weather overview